| time (UTC) | temp F | wind direction | speed knots | gust knots | rain 1hr in | rain 24hr in | rain mn in | humidity % | barometer mb |
| 20260505083017 | 57 | 122 | 1.7 | 8.7 | 0.00 | 0.00 | 0.00 | 83 | 1014.3 |
| 20260505081507 | 57 | 161 | 3.5 | 7.8 | 0.00 | 0.00 | 0.00 | 82 | 1014.5 |
| 20260505080006 | 58 | 192 | 0.0 | 7.0 | 0.00 | 0.00 | 0.00 | 81 | 1014.5 |
| 20260505074600 | 58 | 177 | 3.5 | 7.0 | 0.00 | 0.00 | 0.00 | 78 | 1014.6 |
| 20260505073129 | 59 | 197 | 3.5 | 6.1 | 0.00 | 0.00 | 0.00 | 77 | 1014.5 |
| 20260505071602 | 59 | 179 | 1.7 | 5.2 | 0.00 | 0.00 | 0.00 | 76 | 1014.6 |
| 20260505070100 | 59 | 154 | 0.9 | 6.1 | 0.00 | 0.00 | 0.00 | 75 | 1014.7 |
| 20260505064553 | 59 | 162 | 1.7 | 6.1 | 0.00 | 0.00 | 0.00 | 75 | 1014.8 |
| 20260505063052 | 59 | 168 | 1.7 | 6.1 | 0.00 | 0.00 | 0.00 | 75 | 1014.8 |
| 20260505061552 | 59 | 165 | 1.7 | 6.1 | 0.00 | 0.00 | 0.00 | 75 | 1015.0 |
| 20260505060053 | 60 | 161 | 2.6 | 6.1 | 0.00 | 0.00 | 0.00 | 74 | 1015.1 |
| 20260505054551 | 60 | 126 | 3.5 | 7.0 | 0.00 | 0.00 | 0.00 | 74 | 1015.2 |
| 20260505053051 | 60 | 149 | 2.6 | 6.1 | 0.00 | 0.00 | 0.00 | 73 | 1015.4 |
| 20260505051602 | 60 | 170 | 3.5 | 6.1 | 0.00 | 0.00 | 0.00 | 72 | 1015.6 |
| 20260505041549 | 60 | 178 | 2.6 | 5.2 | 0.00 | 0.00 | 0.00 | 72 | 1015.6 |
| 20260505040047 | 60 | 204 | 0.0 | 4.3 | 0.00 | 0.00 | 0.00 | 71 | 1015.5 |
| 20260505034549 | 60 | 212 | 0.9 | 6.1 | 0.00 | 0.00 | 0.00 | 71 | 1015.4 |
| 20260505033047 | 61 | 210 | 0.0 | 5.2 | 0.00 | 0.00 | 0.00 | 70 | 1015.4 |
| 20260505031552 | 61 | 171 | 0.0 | 5.2 | 0.00 | 0.00 | 0.00 | 70 | 1015.1 |
| 20260505030045 | 61 | 238 | 1.7 | 5.2 | 0.00 | 0.00 | 0.00 | 69 | 1015.1 |
| 20260505024544 | 61 | 185 | 0.9 | 7.0 | 0.00 | 0.00 | 0.00 | 68 | 1014.9 |
| 20260505023050 | 62 | 193 | 3.5 | 8.7 | 0.00 | 0.00 | 0.00 | 67 | 1014.9 |
| 20260505021544 | 62 | 168 | 1.7 | 7.8 | 0.00 | 0.00 | 0.00 | 66 | 1014.8 |
| 20260505020043 | 63 | 163 | 2.6 | 7.0 | 0.00 | 0.00 | 0.00 | 64 | 1014.9 |
| 20260505014542 | 64 | 228 | 2.6 | 7.8 | 0.00 | 0.00 | 0.00 | 62 | 1014.7 |
| 20260505013058 | 65 | 213 | 2.6 | 9.6 | 0.00 | 0.00 | 0.00 | 61 | 1014.9 |
| 20260505011541 | 65 | 243 | 0.0 | 7.0 | 0.00 | 0.00 | 0.00 | 60 | 1014.8 |
| 20260505010040 | 66 | 182 | 4.3 | 10.4 | 0.00 | 0.00 | 0.00 | 58 | 1014.9 |
| 20260505004540 | 67 | 139 | 4.3 | 9.6 | 0.00 | 0.00 | 0.00 | 56 | 1015.0 |
| 20260505003039 | 68 | 186 | 4.3 | 9.6 | 0.00 | 0.00 | 0.00 | 54 | 1014.8 |
| 20260505001538 | 69 | 253 | 3.5 | 9.6 | 0.00 | 0.00 | 0.00 | 51 | 1014.8 |
| 20260505000051 | 69 | 225 | 2.6 | 7.8 | 0.00 | 0.00 | 0.00 | 51 | 1014.7 |
| 20260504234538 | 69 | 174 | 4.3 | 10.4 | 0.00 | 0.00 | 0.00 | 51 | 1014.9 |
| 20260504233041 | 69 | 230 | 3.5 | 7.8 | 0.00 | 0.00 | 0.00 | 51 | 1014.8 |
| 20260504231536 | 70 | 187 | 2.6 | 10.4 | 0.00 | 0.00 | 0.00 | 50 | 1014.7 |
| 20260504230036 | 70 | 178 | 2.6 | 12.2 | 0.00 | 0.00 | 0.00 | 49 | 1014.8 |
| 20260504224535 | 70 | 163 | 4.3 | 9.6 | 0.00 | 0.00 | 0.00 | 50 | 1014.8 |
| 20260504223041 | 71 | 167 | 4.3 | 9.6 | 0.00 | 0.00 | 0.00 | 47 | 1014.9 |
| 20260504221533 | 71 | 201 | 1.7 | 7.8 | 0.00 | 0.00 | 0.00 | 47 | 1014.9 |
| 20260504220040 | 70 | 234 | 4.3 | 13.9 | 0.00 | 0.00 | 0.00 | 47 | 1015.1 |
| 20260504214541 | 71 | 157 | 2.6 | 9.6 | 0.00 | 0.00 | 0.00 | 49 | 1015.2 |
| 20260504213035 | 71 | 199 | 4.3 | 8.7 | 0.00 | 0.00 | 0.00 | 48 | 1015.2 |
| 20260504211536 | 71 | 203 | 3.5 | 10.4 | 0.00 | 0.00 | 0.00 | 48 | 1015.4 |
| 20260504210031 | 70 | 191 | 2.6 | 11.3 | 0.00 | 0.00 | 0.00 | 47 | 1015.3 |
| 20260504204531 | 71 | 255 | 6.1 | 10.4 | 0.00 | 0.00 | 0.00 | 46 | 1015.6 |
| 20260504203032 | 70 | 207 | 4.3 | 9.6 | 0.00 | 0.00 | 0.00 | 47 | 1015.3 |
| 20260504201529 | 71 | 178 | 6.1 | 12.2 | 0.00 | 0.00 | 0.00 | 48 | 1015.4 |
| 20260504200027 | 70 | 216 | 4.3 | 9.6 | 0.00 | 0.00 | 0.00 | 50 | 1015.6 |
| 20260504194524 | 69 | 215 | 5.2 | 9.6 | 0.00 | 0.00 | 0.00 | 50 | 1015.8 |
| 20260504193025 | 69 | 262 | 1.7 | 8.7 | 0.00 | 0.00 | 0.00 | 51 | 1015.8 |
| 20260504191523 | 68 | 249 | 5.2 | 10.4 | 0.00 | 0.00 | 0.00 | 51 | 1015.8 |
| 20260504190019 | 68 | 184 | 3.5 | 7.0 | 0.00 | 0.00 | 0.00 | 53 | 1016.0 |
| 20260504184519 | 67 | 245 | 4.3 | 9.6 | 0.00 | 0.00 | 0.00 | 52 | 1016.2 |
| 20260504183016 | 66 | 178 | 2.6 | 7.0 | 0.00 | 0.00 | 0.00 | 56 | 1016.2 |
| 20260504181523 | 66 | 268 | 2.6 | 7.0 | 0.00 | 0.00 | 0.00 | 59 | 1016.3 |
| 20260504180011 | 65 | 189 | 0.9 | 6.1 | 0.00 | 0.00 | 0.00 | 59 | 1016.3 |
| 20260504174509 | 64 | 229 | 2.6 | 7.0 | 0.00 | 0.00 | 0.00 | 61 | 1016.2 |
| 20260504173009 | 65 | 160 | 1.7 | 9.6 | 0.00 | 0.00 | 0.00 | 62 | 1016.2 |
| 20260504171508 | 65 | 204 | 0.9 | 8.7 | 0.00 | 0.00 | 0.00 | 62 | 1016.1 |